Hourly Data Report for May 29, 2018

TORONTO CITY
ONTARIO
Current Station Operator: ECCC - MSC

43°40'00.000" N
79°24'00.000" W
112.50 m
6158355
71508
XTO

Download Data

Hourly Data (May 2018)
Hourly Data Report for May 29, 2018
TIME
LST
Temp Definition
°C
Dew Point Definition
°C
Rel Hum Definition
%
Precip. Amount Definition
mm

Wind Dir Definition
10's deg

Wind Spd Definition
km/h
Visibility Definition
km
Stn Press Definition
kPa
Hmdx Definition


Wind Chill Definition


Weather Definition


00:00 23.0 13.7 56 0.0 LegendMM LegendMM   100.10 26   LegendNANA
01:00 22.0 14.2 61 0.0 LegendMM LegendMM   100.12 25   LegendNANA
02:00 22.6 14.3 60 0.0 LegendMM LegendMM   100.14 26   LegendNANA
03:00 21.6 13.8 61 0.0 LegendMM LegendMM   100.19 25   LegendNANA
04:00 20.5 14.2 67 0.0 LegendMM LegendMM   100.20     LegendNANA
05:00 21.0 14.5 66 0.0 LegendMM LegendMM   100.25 25   LegendNANA
06:00 20.9 14.4 66 0.0 LegendMM LegendMM   100.28 25   LegendNANA
07:00 22.5 14.7 61 0.0 LegendMM LegendMM   100.31 26   LegendNANA
08:00 23.9 13.7 53 0.0 LegendMM LegendMM   100.37 27   LegendNANA
09:00 24.4 12.8 49 0.0 LegendMM LegendMM   100.46 27   LegendNANA
10:00 24.0 12.1 47 0.0 LegendMM LegendMM   100.48 26   LegendNANA
11:00 24.3 13.2 50 0.0 LegendMM LegendMM   100.48 27   LegendNANA
12:00 24.3 13.6 51 0.0 LegendMM LegendMM   100.47 27   LegendNANA
13:00 23.9 13.8 53 0.0 LegendMM LegendMM   100.43 27   LegendNANA
14:00 24.7 13.2 49 0.0 LegendMM LegendMM   100.40 28   LegendNANA
15:00 24.4 12.5 48 0.0 LegendMM LegendMM   100.38 27   LegendNANA
16:00 24.9 13.2 48 0.0 LegendMM LegendMM   100.32 28   LegendNANA
17:00 24.3 13.1 50 0.0 LegendMM LegendMM   100.29 27   LegendNANA
18:00 22.1 13.0 56 0.0 LegendMM LegendMM   100.31 25   LegendNANA
19:00 22.0 11.6 52 0.0 LegendMM LegendMM   100.29     LegendNANA
20:00 21.3 8.9 45 0.0 LegendMM LegendMM   100.31     LegendNANA
21:00 20.4 7.8 44 0.0 LegendMM LegendMM   100.32     LegendNANA
22:00 20.7 8.1 44 0.0 LegendMM LegendMM   100.33     LegendNANA
23:00 20.7 7.9 44 0.0 LegendMM LegendMM   100.30     LegendNANA

Notes on Data Quality.

Legend

  • E = Estimated
  • M = Missing
  • NA = Not Available*
  • [empty] = Indicates an unobserved value
Date modified: